Amateur Radio Satellites - All Passes

Search period start: 23 May 2013 10:03
Search period end: 24 May 2013 10:03
Location: Natural Bridges National Monument, 37.6093°N, 109.9767°W

Satellite Date Start Highest point End Downlink Frequencies (MHz)
Time Altitude Azimuth
SO-50 23 May 10:02:58 10:07:13 31° 309° (NW) 10:11:25 436.795 FM
SO-67 23 May 10:05:36 10:07:42 15° 291° (WNW) 10:09:48 435.3500 MHz FM
Oscar 11 23 May 10:09:37 10:12:11 15° 93° (E) 10:14:46 145.825 FM, Beacon 2401.500 USB
JAS-2 23 May 10:12:34 10:18:09 27° 92° (E) 10:23:10 435.800 - 435.900 CW/SSB, 435.910 FM
HO-68 23 May 10:15:25 10:22:06 41° 99° (E) 10:28:44 435.675 MHz FM
OPAL 23 May 10:45:20 10:48:26 16° 95° (E) 10:51:30 ?
ISS 23 May 10:57:29 11:00:09 22° 229° (SW) 11:02:49 145.800 FM
UOSAT-12 23 May 11:20:18 11:24:26 37° 114° (ESE) 11:28:36 437.025 FM, 437.400 FM
Oscar 11 23 May 11:44:28 11:48:35 42° 287° (WNW) 11:52:42 145.825 FM, Beacon 2401.500 USB
JAS-2 23 May 11:57:01 12:03:25 44° 292° (WNW) 12:09:06 435.800 - 435.900 CW/SSB, 435.910 FM
MaSat-1 23 May 11:59:43 12:02:52 62° 64° (ENE) 12:05:30 437.345 MHz
HO-68 23 May 12:03:15 12:09:38 36° 295° (WNW) 12:16:01 435.675 MHz FM
OPAL 23 May 12:22:46 12:27:36 50° 290° (WNW) 12:32:22 ?
PANSAT 23 May 12:26:44 12:29:28 18° 171° (S) 12:32:12 not established
UOSAT-12 23 May 13:01:04 13:04:41 23° 311° (NW) 13:08:22 437.025 FM, 437.400 FM
Uribyol 2 23 May 13:19:49 13:23:13 18° 64° (ENE) 13:26:37 436.500 FM
Oscar 19 23 May 13:21:04 13:24:53 21° 65° (ENE) 13:28:41 437.125 CW, 437.150 USB
Saudisat 1A 23 May 13:38:58 13:40:52 12° 42° (NE) 13:42:44 436.775 MHz
Oscar 16 23 May 13:59:02 14:04:06 57° 73° (ENE) 14:09:12 437.025 USB, Beacon 2401.1428
PANSAT 23 May 14:06:20 14:09:17 21° 184° (S) 14:12:13 not established
AO-27 23 May 14:09:55 14:14:56 52° 72° (ENE) 14:19:58 436.795 MHz FM
ITAMSAT 1 23 May 14:16:18 14:21:22 59° 73° (ENE) 14:26:28 435.822 SSB
Gurwin Techsat 1B 23 May 14:42:08 14:44:13 12° 61° (ENE) 14:46:19 435.225 FM
Uosat F 23 May 14:51:35 14:54:55 18° 65° (ENE) 14:58:16 435.120 FM
RS-15 23 May 14:55:28 15:02:54 19° 99° (E) 15:10:08 29.354 - 29.394 USB, Beacon 29.352 USB
AO-Echo 23 May 14:56:37 15:01:15 46° 73° (ENE) 15:05:48 ?
Uribyol 2 23 May 14:57:13 15:02:15 53° 260° (W) 15:07:20 436.500 FM
Oscar 19 23 May 14:58:56 15:03:53 45° 261° (W) 15:08:52 437.125 CW, 437.150 USB
Saudisat 1A 23 May 15:16:40 15:21:13 88° 240° (WSW) 15:25:40 436.775 MHz
Oscar 16 23 May 15:40:47 15:43:48 16° 268° (W) 15:46:50 437.025 USB, Beacon 2401.1428
PANSAT 23 May 15:47:20 15:49:01 12° 197° (SSW) 15:50:41 not established
AO-27 23 May 15:51:30 15:54:45 17° 267° (W) 15:58:00 436.795 MHz FM
TMSAT-1 23 May 15:56:15 16:01:10 41° 71° (ENE) 16:06:07 436.925 FM
ITAMSAT 1 23 May 15:58:26 16:01:14 15° 268° (W) 16:04:04 435.822 SSB
PCSat 23 May 16:02:32 16:06:41 22° 50° (NE) 16:10:48 145.825 MHz
AO-7 23 May 16:03:48 16:10:33 29° 58° (ENE) 16:17:20 29.400 - 29.500 MHz
Gurwin Techsat 1B 23 May 16:18:10 16:23:28 81° 257° (WSW) 16:28:48 435.225 FM
Uosat F 23 May 16:28:31 16:33:20 48° 260° (W) 16:38:11 435.120 FM
Sapphire 23 May 16:35:01 16:40:01 36° 55° (NE) 16:45:00 437.095 MHz 1200 baud AX-25 AFSK
AO-Echo 23 May 16:37:12 16:40:15 17° 267° (W) 16:43:16 ?
SO-50 23 May 16:56:49 16:59:55 18° 46° (NE) 17:03:00 436.795 FM
RS-15 23 May 17:01:31 17:13:39 84° 118° (ESE) 17:25:17 29.354 - 29.394 USB, Beacon 29.352 USB
TMSAT-1 23 May 17:37:12 17:41:14 22° 266° (W) 17:45:18 436.925 FM
PCSat 23 May 17:45:09 17:50:26 54° 247° (WSW) 17:55:41 145.825 MHz
AO-7 23 May 17:54:36 18:02:46 62° 256° (WSW) 18:11:01 29.400 - 29.500 MHz
Sapphire 23 May 18:18:42 18:23:17 29° 252° (WSW) 18:27:52 437.095 MHz 1200 baud AX-25 AFSK
SO-50 23 May 18:36:27 18:40:51 52° 244° (WSW) 18:45:11 436.795 FM
JAS-1B 23 May 18:47:54 18:54:40 25° 63° (ENE) 19:00:43 435.800 - 435.900 CW/SSB
Hamsat 23 May 19:01:27 19:05:08 30° 71° (ENE) 19:08:51 145.90 MHz
RS-15 23 May 19:17:17 19:27:28 32° 321° (NW) 19:37:21 29.354 - 29.394 USB, Beacon 29.352 USB
STRAND 1 23 May 19:37:15 19:42:23 66° 102° (ESE) 19:47:30 ?
UOSAT-12 23 May 19:52:01 19:55:35 22° 48° (NE) 19:59:08 437.025 FM, 437.400 FM
JAS-2 23 May 20:24:03 20:27:42 14° 55° (NE) 20:31:20 435.800 - 435.900 CW/SSB, 435.910 FM
JAS-1B 23 May 20:35:18 20:44:40 74° 257° (WSW) 20:52:41 435.800 - 435.900 CW/SSB
Hamsat 23 May 20:38:11 20:41:14 19° 266° (W) 20:44:19 145.90 MHz
SO-67 23 May 20:38:12 20:41:40 51° 261° (W) 20:45:10 435.3500 MHz FM
HO-68 23 May 20:42:54 20:48:32 26° 61° (ENE) 20:54:11 435.675 MHz FM
Oscar 11 23 May 21:05:37 21:06:13 10° 63° (ENE) 21:06:49 145.825 FM, Beacon 2401.500 USB
STRAND 1 23 May 21:18:17 21:21:00 15° 298° (WNW) 21:23:43 ?
UOSAT-12 23 May 21:31:34 21:35:55 42° 245° (WSW) 21:40:15 437.025 FM, 437.400 FM
RS-15 23 May 21:39:05 21:45:16 15° 356° (N) 21:51:20 29.354 - 29.394 USB, Beacon 29.352 USB
OPAL 23 May 21:57:57 22:02:13 26° 65° (ENE) 22:06:28 ?
JAS-2 23 May 22:03:41 22:11:20 70° 73° (ENE) 22:19:08 435.800 - 435.900 CW/SSB, 435.910 FM
KITSAT 1 23 May 22:13:13 22:19:52 29° 106° (ESE) 22:26:32 435.175 FM
HO-68 23 May 22:28:45 22:35:44 58° 258° (WSW) 22:42:46 435.675 MHz FM
JAS-1B 23 May 22:32:13 22:35:51 13° 270° (W) 22:39:20 435.800 - 435.900 CW/SSB
Oscar 11 23 May 22:37:33 22:41:50 67° 259° (WSW) 22:46:10 145.825 FM, Beacon 2401.500 USB
AO-40 23 May 23:24:26 05:15:47 44° 168° (SSE) 08:43:28 Beacon 2401.320
OPAL 23 May 23:36:11 23:40:55 35° 260° (W) 23:45:39 ?
JAS-2 23 May 23:50:59 23:56:48 23° 269° (W) 00:02:45 435.800 - 435.900 CW/SSB, 435.910 FM
RS-15 23 May 23:54:37 00:03:33 26° 33° (NNE) 00:12:13 29.354 - 29.394 USB, Beacon 29.352 USB
KITSAT 1 24 May 00:06:50 00:14:44 58° 303° (WNW) 00:22:44 435.175 FM
MaSat-1 24 May 00:47:25 00:52:21 20° 104° (ESE) 00:56:47 437.345 MHz
ISS 24 May 02:01:35 02:04:30 30° 133° (SE) 02:07:27 145.800 FM
RS-15 24 May 02:06:44 02:17:54 82° 59° (ENE) 02:28:47 29.354 - 29.394 USB, Beacon 29.352 USB
KITSAT 1 24 May 02:07:42 02:12:05 15° 327° (NNW) 02:16:29 435.175 FM
Oscar 16 24 May 02:13:32 02:17:39 24° 95° (E) 02:21:43 437.025 USB, Beacon 2401.1428
AO-27 24 May 02:25:41 02:29:44 22° 95° (E) 02:33:45 436.795 MHz FM
MaSat-1 24 May 02:27:07 02:34:14 69° 295° (WNW) 02:40:06 437.345 MHz
ITAMSAT 1 24 May 02:31:49 02:36:05 25° 95° (E) 02:40:20 435.822 SSB
AO-Echo 24 May 03:06:41 03:09:46 17° 93° (E) 03:12:53 ?
Uribyol 2 24 May 03:11:50 03:17:04 66° 102° (ESE) 03:22:14 436.500 FM
Oscar 19 24 May 03:12:21 03:17:32 77° 103° (ESE) 03:22:40 437.125 CW, 437.150 USB
ISS 24 May 03:38:18 03:41:12 27° 329° (NNW) 03:44:07 145.800 FM
Oscar 16 24 May 03:52:21 03:57:05 37° 290° (WNW) 04:01:47 437.025 USB, Beacon 2401.1428
AO-27 24 May 04:04:30 04:09:21 40° 290° (WNW) 04:14:12 436.795 MHz FM
ITAMSAT 1 24 May 04:10:53 04:15:38 36° 290° (WNW) 04:20:22 435.822 SSB
MaSat-1 24 May 04:14:41 04:17:00 12° 309° (NW) 04:19:09 437.345 MHz
TMSAT-1 24 May 04:14:54 04:18:40 19° 93° (E) 04:22:24 436.925 FM
RS-15 24 May 04:21:04 04:28:48 23° 259° (W) 04:36:32 29.354 - 29.394 USB, Beacon 29.352 USB
Gurwin Techsat 1B 24 May 04:36:32 04:41:41 48° 99° (E) 04:46:48 435.225 FM
Uosat F 24 May 04:38:03 04:43:02 61° 101° (ESE) 04:48:00 435.120 FM
AO-Echo 24 May 04:44:13 04:48:45 45° 288° (WNW) 04:53:22 ?
Uribyol 2 24 May 04:53:06 04:55:58 15° 298° (WNW) 04:58:49 436.500 FM
Oscar 19 24 May 04:54:08 04:56:11 12° 299° (WNW) 04:58:14 437.125 CW, 437.150 USB
Saudisat 1A 24 May 05:22:11 05:26:24 39° 115° (ESE) 05:30:42 436.775 MHz
TMSAT-1 24 May 05:53:44 05:58:48 47° 288° (WNW) 06:03:52 436.925 FM
AO-7 24 May 05:58:13 06:06:22 53° 102° (ESE) 06:14:27 29.400 - 29.500 MHz
KITSAT 1 24 May 06:08:32 06:12:22 14° 31° (NNE) 06:16:12 435.175 FM
Gurwin Techsat 1B 24 May 06:17:29 06:21:16 20° 295° (WNW) 06:25:03 435.225 FM
Uosat F 24 May 06:18:31 06:21:18 15° 297° (WNW) 06:24:06 435.120 FM
PCSat 24 May 06:42:43 06:47:07 26° 107° (ESE) 06:51:31 145.825 MHz
STRAND 1 24 May 06:51:25 06:56:30 78° 75° (ENE) 07:01:36 ?
Saudisat 1A 24 May 07:02:35 07:06:14 23° 311° (NW) 07:09:55 436.775 MHz
Sapphire 24 May 07:14:49 07:19:59 49° 112° (ESE) 07:25:11 437.095 MHz 1200 baud AX-25 AFSK
AO-7 24 May 07:51:33 07:58:46 34° 300° (WNW) 08:06:00 29.400 - 29.500 MHz
KITSAT 1 24 May 08:02:03 08:09:57 51° 55° (NE) 08:17:47 435.175 FM
SO-67 24 May 08:08:11 08:10:06 14° 93° (E) 08:12:02 435.3500 MHz FM
JAS-1B 24 May 08:24:54 08:30:02 31° 96° (E) 08:34:58 435.800 - 435.900 CW/SSB
Hamsat 24 May 08:25:07 08:29:30 86° 102° (ESE) 08:33:54 145.90 MHz
PCSat 24 May 08:25:14 08:30:18 40° 304° (WNW) 08:35:24 145.825 MHz
ISS 24 May 08:31:53 08:34:38 23° 29° (NNE) 08:37:24 145.800 FM
STRAND 1 24 May 08:35:30 08:36:14 10° 270° (W) 08:36:58 ?
SO-50 24 May 08:49:26 08:54:15 81° 119° (ESE) 08:59:00 436.795 FM
Sapphire 24 May 08:59:23 09:03:39 23° 309° (NW) 09:07:58 437.095 MHz 1200 baud AX-25 AFSK
SO-67 24 May 09:40:29 09:43:37 29° 287° (WNW) 09:46:45 435.3500 MHz FM

Developed and maintained by Chris Peat, Heavens-Above GmbH. Please read the updated FAQ before sending e-mail. Imprint. DLR
